{"data":{"norad_id":57499,"intl_designator":"2023-113E","name":"STARLINK-30169","alt_names":[],"object_type":"PAYLOAD","status":"ACTIVE","operator":null,"country":"US","launch_date":"2023-08-07","launch_site_code":"AFETR","launch_vehicle":null,"mission":null,"orbit_class":"UNKNOWN","rcs_meters":null,"size_class":null,"mass_kg":null,"dimensions":null,"purposes":["comms"],"wikipedia_slug":null,"has_3d_model":false,"image_url":null,"decayed_at":null,"tle_current":{"epoch":"2026-09-20T13:11:16.438848Z","epoch_age_seconds":123409,"freshness":"FRESH","line1":"1 57499U 23113E   26263.54949582  .00005330  00000+0  20318-3 0  9996","line2":"2 57499  43.0054 341.4278 0001445 282.5276  77.5414 15.27563140173482","mean_motion":15.2756314,"eccentricity":0.0001445,"inclination_deg":43.0054,"raan_deg":341.4278,"arg_perigee_deg":282.5276,"mean_anomaly_deg":77.5414,"bstar":0.00020318,"rev_number":17348,"period_min":94.267789153383,"perigee_km":482.10813272333,"apogee_km":484.09103009536,"semimajor_km":6861.2365814093,"source":"CELESTRAK","updated_at":"2026-09-21T09:00:33.632845Z"}}}